Find OneWeb SL0567

NORAD ID: 55147 Int'l Des: 2023-004 Owner: ONEWEBN Country: UK Constellation: oneweb operational
LEOCIRCULARPOLARONEWEB_TYPE

現在のビュー

3D地球を読み込み中...

About OneWeb SL0567

OneWeb SL0567 (NORAD 55147) is a oneweb constellation satellite launched Jan 10, 2023 by ONEWEBN of UK. It operates in LEO, CIRCULAR, POLAR, ONEWEB_TYPE orbit with a mass of 148.00 kg.

OneWeb SL0567について

説明を読み込み中...

次回通過

Passes for default location (London). Set your location on the main map for personalized predictions.

高度履歴

Loading altitude history...

軌道要素

1 55147U 23004H 26171.39959036 .00000084 00000-0 18118-3 0 9996
2 55147 87.9165 334.8309 0001967 104.0571 256.0779 13.18686320170126
Epoch: Jun 20, 2026 • Age: 33 hours

現在のステータス

高度 1200.4 km
速度 7.25 km/s
衛星直下点 -26.13°S, 150.03°E
打ち上げ日 Jan 10, 2023
運用期間 3.4 years
タイプ internet

技術仕様

分類 Payload
質量 148.00 kg
乾燥質量 140.00 kg
総質量 148.00 kg
長さ 1.30 m
直径 1.00 m
スパン 5.00 m
形状 Trapezoid+2 pan
製造者 ONEWUS
バスタイプ ARROW
フェーズステータス In Orbit
所有者/国 ONEWEBN/UK

Most Searched